Location: Thessaloniki
(40.6330°N, 22.9330°E)
Time: 22:27:58
(UTC+03:00)

ISS - Visible Passes

Search period start: 21 October 2017 00:00
Search period end: 30 October 2017 23:00
Orbit: 401 x 408 km, 51.6° (Epoch: 22 October)

Date Brightness Start Highest point End Pass type
(mag) Time Alt. Az. Time Alt. Az. Time Alt. Az.
27 Oct -0.8 07:20:42 10° S 07:22:50 16° SE 07:24:56 10° E visible
29 Oct -2.4 06:11:09 10° SSW 06:14:12 39° SE 06:17:16 10° ENE visible
30 Oct -1.3 05:19:26 10° S 05:21:55 20° SE 05:24:24 10° E visible
